OpenBCM V1.08-5-g2f4a (Linux)

Packet Radio Mailbox

IZ3LSV

[San Dona' di P. JN]

 Login: GUEST





  
I0OJJ  > KEPS     08.04.25 02:25l 352 Lines 16783 Bytes #19 (0) @ AMSAT
BID : ORB25098.1
Read: GUEST
Subj: 2Line Orbital Elements 25098.AMSAT
Path: IZ3LSV<I0OJJ
Sent: 250408/0025z @:I0OJJ.ITA.EU [Rome] obcm1.08-6-g5b69
From: I0OJJ @ I0OJJ.ITA.EU (Gustavo)
To:   KEPS @ AMSAT
X-Info: This message was generated automatically


QST de W1STR

AMSAT Orbital Elements for Amateur Satellites in TLE Format
From Orbital Analysis Office
New England Sci-Tech STEM Education Center
Natick, MA April 08, 2025
To all radio amateurs


These element sets describe the orbits of various satellites 
in use by the amateur radio community. For details see:
www.amsat.org/keplerian-elements-formats/

A daily update of element sets is available at:
www.amsat.org/tle/daily-bulletin.txt
or without bulletin text:
www.amsat.org/tle/dailytle.txt


AO-07
1 07530U 74089B   25097.53785231 -.00000015  00000-0  19478-3 0  9999
2 07530 101.9952 101.1273 0011895 241.6251 236.2290 12.53688013305924
UO-11
1 14781U 84021B   25097.84730483  .00003421  00000-0  36827-3 0  9995
2 14781  97.7480  65.4908 0007881 171.3868 188.7486 14.89107661213302
AO-27
1 22825U 93061C   25097.55922923  .00000295  00000-0  12993-3 0  9991
2 22825  98.7429 158.7829 0007370 301.2533  58.7926 14.30769355644705
FO-29
1 24278U 96046B   25097.24211077  .00000040  00000-0  74407-4 0  9995
2 24278  98.5822 359.4553 0350497 146.5480 215.8343 13.53242790414202
NOAA-15
1 25338U 98030A   25097.84458536  .00000398  00000-0  18129-3 0  9991
2 25338  98.5417 124.4687 0010402 176.4454 183.6803 14.26935050399451
GO-32
1 25397U 98043D   25097.53792676  .00000258  00000-0  13195-3 0  9995
2 25397  98.9658  75.3583 0002114  57.5635 302.5747 14.24290612389316
ISS
1 25544U 98067A   25097.84307398  .00011468  00000-0  21353-3 0  9992
2 25544  51.6372 295.4298 0004941  19.7677 340.3503 15.49328433504256
NO-44
1 26931U 01043C   25097.56483468  .00000455  00000-0  20151-3 0  9992
2 26931  67.0500 290.7624 0005563 269.3360  90.7104 14.31687028228080
SO-50
1 27607U 02058C   25097.23618189  .00004479  00000-0  57805-3 0  9990
2 27607  64.5554  36.0284 0048857 349.2191  10.7862 14.81358670199845
CO-55
1 27844U 03031E   25097.58082260  .00000824  00000-0  37831-3 0  9995
2 27844  98.6787 106.6627 0009929  17.9718 342.1810 14.23924492129676
CO-57
1 27848U 03031J   25097.57028975  .00000677  00000-0  31810-3 0  9998
2 27848  98.6815 106.7052 0010147  34.1683 326.0146 14.23269091129402
RS-22
1 27939U 03042A   25097.88124619  .00002732  00000-0  44203-3 0  9991
2 27939  98.3223 265.8438 0011172 203.2690 266.5674 14.72111708151600
NOAA-18
1 28654U 05018A   25097.83908886  .00000379  00000-0  22441-3 0  9997
2 28654  98.8435 178.0187 0013190 309.8073  50.1938 14.13568207 24885
CO-58
1 28895U 05043F   25097.66125820  .00004145  00000-0  68763-3 0  9994
2 28895  98.2383 241.2708 0015555 143.9080 216.3179 14.70678035 37928
CO-65
1 32785U 08021C   25097.26973960  .00011858  00000-0  87270-3 0  9991
2 32785  97.7783  68.0227 0011579  69.1954 291.0510 15.03474904919565
AAUSAT2
1 32788U 08021F   25097.51750991  .00227747  00000-0  21637-2 0  9999
2 32788  97.6033  92.5223 0007765 134.8459 225.3433 15.66119989923450
CO-66
1 32791U 08021J   25097.67897475  .00021557  00000-0  11043-2 0  9990
2 32791  97.7244  76.4203 0005921  52.5873 307.5897 15.16594799921036
RS-30
1 32953U 08025A   25097.78917884  .00000059  00000-0  35229-3 0  9990
2 32953  82.4982 266.2325 0019618 180.2921 179.8151 12.43161799765734
NOAA-19
1 33591U 09005A   25097.83530014  .00000366  00000-0  21883-3 0  9992
2 33591  99.0026 162.1746 0013998 176.9329 183.1931 14.13333685833246
SRMSAT
1 37841U 11058D   25097.52812204  .00000604  00000-0  18451-3 0  9997
2 37841  19.9706 176.0947 0011921  91.0731 298.0442 14.11405509696196
ZACUBE-1
1 39417U 13066B   25097.45816253  .00009334  00000-0  82510-3 0  9995
2 39417  97.7733  54.8644 0042930 262.9380  96.6958 14.95838012615478
Delfi-N3xt
1 39428U 13066N   25097.47850777  .00009788  00000-0  10222-2 0  9991
2 39428  97.8356  15.8867 0085467 207.1585 152.5149 14.87208570609698
GOMX-1
1 39430U 13066Q   25097.89304788  .00003804  00000-0  59666-3 0  9995
2 39430  97.6928 320.3871 0134073  33.6174 327.3448 14.67306404606219
LO-74
1 39440U 13066AA  25097.80549521  .00009455  00000-0  96828-3 0  9992
2 39440  97.8445  42.8476 0064156  28.8611 331.6130 14.89169815613298
AO-73
1 39444U 13066AE  25097.38286285  .00014344  00000-0  11064-2 0  9995
2 39444  97.7667  59.1488 0039653 239.0319 120.7006 15.01069211614100
DTUSAT-2
1 40030U 14033W   25097.84175047  .00012963  00000-0  86746-3 0  9992
2 40030  98.0504  66.6985 0006993 274.3045  85.7383 15.07057672587450
EO-80
1 40032U 14033Y   25097.66592955  .00012644  00000-0  84478-3 0  9991
2 40032  98.0378  66.2566 0007722 200.4805 159.6113 15.07119650587410
LILACSAT-2
1 40908U 15049K   25097.89413940  .00017973  00000-0  49679-3 0  9996
2 40908  97.5123 116.7868 0010454  37.3913 322.8056 15.37042295528590
IO-86
1 40931U 15052B   25038.81889873  .00001817  00000-0  15548-3 0  9993
2 40931   6.0001 108.1159 0012838 187.7041 172.2889 14.78568669506492
Horyu-4
1 41340U 16012D   25097.48337076  .00036305  00000-0  10845-2 0  9990
2 41340  30.9972 195.2628 0008829 122.1983 237.9519 15.33351004503087
Lapan A3
1 41603U 16040E   25097.82929704  .00005793  00000-0  20622-3 0  9998
2 41603  97.1394 104.9177 0012813 127.4080 232.8329 15.29247650488195
CAS-2T
1 41847U 16066G   25097.80750177  .00001992  00000-0  29193-3 0  9999
2 41847  98.4230 172.8104 0346932   8.5950 352.0976 14.43294788441965
CAS-4B
1 42759U 17034B   25097.88447824  .00065911  00000-0  95859-3 0  9991
2 42759  43.0102 333.2858 0018923 217.6729 142.2809 15.54681140432817
CAS-4A
1 42761U 17034D   25097.83004857  .00067142  00000-0  94976-3 0  9991
2 42761  43.0137 331.3018 0020307 221.8262 138.1048 15.55394851432824
TechnoSat
1 42829U 17042E   25097.73372231  .00006425  00000-0  50448-3 0  9991
2 42829  97.3919 269.4516 0014649 128.8000 231.4536 15.01150921421298
AO-91
1 43017U 17073E   25097.59511356  .00015810  00000-0  82612-3 0  9998
2 43017  97.5346 329.9777 0176997  21.4048 339.4461 15.03353472399748
S-Net D
1 43186U 18014G   25097.27484280  .00010811  00000-0  65087-3 0  9994
2 43186  97.5677   0.8451 0011187  83.5237 276.7266 15.10939316392816
S-Net B
1 43187U 18014H   25097.61058689  .00009664  00000-0  58240-3 0  9990
2 43187  97.5684   1.1459 0011839  78.9350 281.3211 15.10925378392865
S-Net A
1 43188U 18014J   25097.47412322  .00009853  00000-0  59336-3 0  9990
2 43188  97.5691   1.1527 0011791  79.2821 280.9735 15.10946984392844
S-Net C
1 43189U 18014K   25097.67908262  .00009704  00000-0  58462-3 0  9990
2 43189  97.5706   1.3589 0013211  72.8377 287.4299 15.10922845391426
Ten-Koh
1 43677U 18084G   25097.04016129  .00005553  00000-0  44955-3 0  9992
2 43677  98.0952 266.7652 0010233 127.2701 232.9456 15.00135224350715
PO-101
1 43678U 18084H   25097.80649270  .00004695  00000-0  40366-3 0  9994
2 43678  98.0988 271.5622 0009091 134.8039 225.3922 14.97903224350985
QO-100
1 43700U 18090A   25097.89306406  .00000129  00000-0  00000+0 0  9992
2 43700   0.0212 191.1556 0001612 218.2528 134.2979  1.00269955 23554
MinXSS-2
1 43758U 18099A   25096.92824134  .00027717  00000-0  11713-2 0  9998
2 43758  97.5079 162.8491 0011973  26.8054 333.3799 15.23139639347275
AO-95
1 43770U 18099N   25097.11000866  .00018290  00000-0  96096-3 0  9996
2 43770  97.4991 155.9387 0012263  77.7451 282.5154 15.15683511346933
RANGE-A
1 43773U 18099R   25097.86025183  .00008137  00000-0  52746-3 0  9993
2 43773  97.4568 148.0868 0012762  54.7046 305.5374 15.08296176346762
MOVE-II
1 43780U 18099Y   25096.94633722  .00146617  00000-0  22515-2 0  9999
2 43780  97.4719 168.8497 0000633 301.4756  58.6435 15.53753050347854
SNUSat 2
1 43782U 18099AA  25097.62322996  .00012886  00000-0  72518-3 0  9994
2 43782  97.4678 153.6975 0012266  19.6046 340.5655 15.13315956346972
SnugLite
1 43784U 18099AC  25097.54947815  .00015280  00000-0  79784-3 0  9993
2 43784  97.4493 153.0699 0003791  41.8585 318.2937 15.15999624347084
ITASat 1
1 43786U 18099AE  25097.62883775  .00011377  00000-0  66669-3 0  9999
2 43786  97.4645 153.3891 0015887  67.9321 292.3594 15.11844956346946
EAGLET 1
1 43790U 18099AJ  25097.61076490  .00007474  00000-0  48439-3 0  9999
2 43790  97.4845 153.5212 0013377  52.2353 308.0085 15.08326096346571
ESEO
1 43792U 18099AL  25097.86566167  .00003486  00000-0  26789-3 0  9996
2 43792  97.4577 147.8531 0012391  28.5198 331.6703 15.02298057346403
CSIM
1 43793U 18099AM  25097.82171132  .00123660  00000-0  18609-2 0  9995
2 43793  97.4903 171.9029 0003944 314.2195  45.8734 15.54390129347839
JO-97
1 43803U 18099AX  25097.65003370  .00018300  00000-0  87750-3 0  9994
2 43803  97.4739 157.3456 0007227  16.9806 343.1669 15.18930370347214
Suomi 100
1 43804U 18099AY  25097.56877756  .00015412  00000-0  78511-3 0  9998
2 43804  97.4802 156.7267 0012398  14.5982 345.5607 15.16808823347148
ISAT
1 43879U 18111D   25097.19067306  .00034223  00000-0  12987-2 0  9991
2 43879  97.5986  10.3098 0011990  68.1350 292.1162 15.26702590344013
UWE-4
1 43880U 18111E   25097.47703011  .00023628  00000-0  99071-3 0  9991
2 43880  97.5933   9.4902 0015225  74.8783 285.4137 15.23398492344015
Sparrow
1 43881U 18111F   25097.28557708  .00035082  00000-0  12897-2 0  9998
2 43881  97.6124  13.0529 0010325  98.2053 262.0357 15.27764719344110
Prox-1
1 44339U 19036A   25097.74627807  .00016756  00000-0  22210-2 0  9990
2 44339  23.9966 114.0520 0007422  81.3511 278.7827 14.78223919308791
SONATE
1 44400U 19038Q   25097.54489373  .00124488  00000-0  10075-2 0  9991
2 44400  97.7023 117.1412 0010497 122.1060 238.1222 15.70347301319613
Taurus 1
1 44530U 19059C   25097.83790964  .00012886  00000-0  24291-2 0  9994
2 44530  98.5977 234.3297 0010364 222.7588 137.2808 14.64620400294754
